Location: Lecco
(45.8566°N, 9.3977°E)
Time: 23:29:10
(UTC+02:00)

ISS - Pass Details

Date: 19 July 2018
Orbit: 402 x 408 km, 51.6° (Epoch: 16 July)

Event Time Altitude Azimuth Distance (km) Brightness Sun altitude
Rises 03:05:52 0° 294° (WNW) 2,329 0.0 -19.7°
Reaches altitude 10° 03:08:04 10° 305° (NW) 1,469 -0.9 -19.6°
Maximum altitude 03:11:06 33° 12° (NNE) 706 -2.0 -19.3°
Drops below altitude 10° 03:14:08 10° 79° (ENE) 1,468 -0.5 -19.1°
Sets 03:16:21 0° 89° (E) 2,328 0.4 -18.9°
